Year,Month,Day,Hour,Minute,Value (Times are PST for temperature in C)
2009,02,18,00,00,0.70
2009,02,18,00,01,0.70
2009,02,18,00,02,0.80
2009,02,18,00,03,0.80
2009,02,18,00,04,0.80
2009,02,18,00,05,0.80
2009,02,18,00,06,0.90
2009,02,18,00,07,0.90
2009,02,18,00,08,1.00
2009,02,18,00,09,1.00
2009,02,18,00,10,1.00
2009,02,18,00,11,1.10
2009,02,18,00,12,1.10
2009,02,18,00,13,1.10
2009,02,18,00,14,1.00
2009,02,18,00,15,1.00
2009,02,18,00,16,0.90
2009,02,18,00,17,0.90
2009,02,18,00,18,0.90
2009,02,18,00,19,0.90
2009,02,18,00,20,0.90
2009,02,18,00,21,0.90
2009,02,18,00,22,0.90
2009,02,18,00,23,1.00
2009,02,18,00,24,1.00
2009,02,18,00,25,1.00
2009,02,18,00,26,1.00
2009,02,18,00,27,1.00
2009,02,18,00,28,1.00
2009,02,18,00,29,1.00
2009,02,18,00,30,0.90
2009,02,18,00,31,0.90
2009,02,18,00,32,0.90
2009,02,18,00,33,0.90
2009,02,18,00,34,0.80
2009,02,18,00,35,0.80
2009,02,18,00,36,0.80
2009,02,18,00,37,0.80
2009,02,18,00,38,0.70
2009,02,18,00,39,0.70
2009,02,18,00,40,0.70
2009,02,18,00,41,0.70
2009,02,18,00,42,0.70
2009,02,18,00,43,0.70
2009,02,18,00,44,0.60
2009,02,18,00,45,0.60
2009,02,18,00,46,0.60
2009,02,18,00,47,0.50
2009,02,18,00,48,0.50
2009,02,18,00,49,0.50
2009,02,18,00,50,0.40
2009,02,18,00,51,0.40
2009,02,18,00,52,0.40
2009,02,18,00,53,0.40
2009,02,18,00,54,0.30
2009,02,18,00,55,0.30
2009,02,18,00,56,0.30
2009,02,18,00,57,0.30
2009,02,18,00,58,0.20
2009,02,18,00,59,0.20
2009,02,18,01,00,0.20
2009,02,18,01,01,0.20
2009,02,18,01,02,0.10
2009,02,18,01,03,0.10
2009,02,18,01,04,0.10
2009,02,18,01,05,0.10
2009,02,18,01,06,0.10
2009,02,18,01,07,0.10
2009,02,18,01,08,0.00
2009,02,18,01,09,0.00
2009,02,18,01,10,0.00
2009,02,18,01,11,-0.10
2009,02,18,01,12,-0.10
2009,02,18,01,13,-0.10
2009,02,18,01,14,-0.10
2009,02,18,01,15,-0.10
2009,02,18,01,16,-0.10
2009,02,18,01,17,-0.10
2009,02,18,01,18,-0.10
2009,02,18,01,19,-0.10
2009,02,18,01,20,-0.20
2009,02,18,01,21,-0.20
2009,02,18,01,22,-0.20
2009,02,18,01,23,-0.20
2009,02,18,01,24,-0.20
2009,02,18,01,25,-0.30
2009,02,18,01,26,-0.30
2009,02,18,01,27,-0.30
2009,02,18,01,28,-0.30
2009,02,18,01,29,-0.30
2009,02,18,01,30,-0.30
2009,02,18,01,31,-0.30
2009,02,18,01,32,-0.40
2009,02,18,01,33,-0.40
2009,02,18,01,34,-0.40
2009,02,18,01,35,-0.40
2009,02,18,01,36,-0.50
2009,02,18,01,37,-0.50
2009,02,18,01,38,-0.50
2009,02,18,01,39,-0.60
2009,02,18,01,40,-0.60
2009,02,18,01,41,-0.60
2009,02,18,01,42,-0.60
2009,02,18,01,43,-0.60
2009,02,18,01,44,-0.60
2009,02,18,01,45,-0.70
2009,02,18,01,46,-0.70
2009,02,18,01,47,-0.70
2009,02,18,01,48,-0.70
2009,02,18,01,49,-0.70
2009,02,18,01,50,-0.70
2009,02,18,01,51,-0.70
2009,02,18,01,52,-0.70
2009,02,18,01,53,-0.70
2009,02,18,01,54,-0.70
2009,02,18,01,55,-0.70
2009,02,18,01,56,-0.70
2009,02,18,01,57,-0.80
2009,02,18,01,58,-0.80
2009,02,18,01,59,-0.80
2009,02,18,02,00,-0.80
2009,02,18,02,01,-0.80
2009,02,18,02,02,-0.80
2009,02,18,02,03,-0.80
2009,02,18,02,04,-0.80
2009,02,18,02,05,-0.80
2009,02,18,02,06,-0.90
2009,02,18,02,07,-0.90
2009,02,18,02,08,-0.90
2009,02,18,02,09,-0.90
2009,02,18,02,10,-0.90
2009,02,18,02,11,-0.90
2009,02,18,02,12,-0.90
2009,02,18,02,13,-0.90
2009,02,18,02,14,-0.90
2009,02,18,02,15,-0.90
2009,02,18,02,16,-0.90
2009,02,18,02,17,-0.90
2009,02,18,02,18,-0.90
2009,02,18,02,19,-0.90
2009,02,18,02,20,-0.90
2009,02,18,02,21,-0.90
2009,02,18,02,22,-0.90
2009,02,18,02,23,-0.90
2009,02,18,02,24,-0.90
2009,02,18,02,25,-0.90
2009,02,18,02,26,-0.90
2009,02,18,02,27,-1.00
2009,02,18,02,28,-1.00
2009,02,18,02,29,-1.00
2009,02,18,02,30,-1.00
2009,02,18,02,31,-1.10
2009,02,18,02,32,-1.10
2009,02,18,02,33,-1.10
2009,02,18,02,34,-1.10
2009,02,18,02,35,-1.10
2009,02,18,02,36,-1.20
2009,02,18,02,37,-1.20
2009,02,18,02,38,-1.20
2009,02,18,02,39,-1.20
2009,02,18,02,40,-1.20
2009,02,18,02,41,-1.10
2009,02,18,02,42,-1.10
2009,02,18,02,43,-1.10
2009,02,18,02,44,-1.10
2009,02,18,02,45,-1.10
2009,02,18,02,46,-1.00
2009,02,18,02,47,-1.00
2009,02,18,02,48,-1.00
2009,02,18,02,49,-1.00
2009,02,18,02,50,-1.00
2009,02,18,02,51,-1.00
2009,02,18,02,52,-1.00
2009,02,18,02,53,-1.10
2009,02,18,02,54,-1.10
2009,02,18,02,55,-1.10
2009,02,18,02,56,-1.10
2009,02,18,02,57,-1.10
2009,02,18,02,58,-1.20
2009,02,18,02,59,-1.20
2009,02,18,03,00,-1.20
2009,02,18,03,01,-1.20
2009,02,18,03,02,-1.20
2009,02,18,03,03,-1.20
2009,02,18,03,04,-1.30
2009,02,18,03,05,-1.30
2009,02,18,03,06,-1.30
2009,02,18,03,07,-1.30
2009,02,18,03,08,-1.30
2009,02,18,03,09,-1.30
2009,02,18,03,10,-1.30
2009,02,18,03,11,-1.30
2009,02,18,03,12,-1.30
2009,02,18,03,13,-1.30
2009,02,18,03,14,-1.30
2009,02,18,03,15,-1.30
2009,02,18,03,16,-1.30
2009,02,18,03,17,-1.30
2009,02,18,03,18,-1.30
2009,02,18,03,19,-1.30
2009,02,18,03,20,-1.30
2009,02,18,03,21,-1.30
2009,02,18,03,22,-1.30
2009,02,18,03,23,-1.30
2009,02,18,03,24,-1.20
2009,02,18,03,25,-1.20
2009,02,18,03,26,-1.20
2009,02,18,03,27,-1.20
2009,02,18,03,28,-1.20
2009,02,18,03,29,-1.20
2009,02,18,03,30,-1.20
2009,02,18,03,31,-1.10
2009,02,18,03,32,-1.10
2009,02,18,03,33,-1.10
2009,02,18,03,34,-1.10
2009,02,18,03,35,-1.10
2009,02,18,03,36,-1.10
2009,02,18,03,37,-1.10
2009,02,18,03,38,-1.10
2009,02,18,03,39,-1.10
2009,02,18,03,40,-1.10
2009,02,18,03,41,-1.10
2009,02,18,03,42,-1.10
2009,02,18,03,43,-1.10
2009,02,18,03,44,-1.20
2009,02,18,03,45,-1.20
2009,02,18,03,46,-1.20
2009,02,18,03,47,-1.20
2009,02,18,03,48,-1.20
2009,02,18,03,49,-1.20
2009,02,18,03,50,-1.20
2009,02,18,03,51,-1.20
2009,02,18,03,52,-1.20
2009,02,18,03,53,-1.20
2009,02,18,03,54,-1.20
2009,02,18,03,55,-1.20
2009,02,18,03,56,-1.20
2009,02,18,03,57,-1.20
2009,02,18,03,58,-1.20
2009,02,18,03,59,-1.20
2009,02,18,04,00,-1.20
2009,02,18,04,01,-1.20
2009,02,18,04,02,-1.20
2009,02,18,04,03,-1.30
2009,02,18,04,20,-1.10
2009,02,18,04,33,-1.20
2009,02,18,04,47,-1.40
2009,02,18,05,51,-1.80
2009,02,18,06,00,-1.90
2009,02,18,06,10,-1.90
2009,02,18,06,20,-1.90
2009,02,18,06,25,-1.90
2009,02,18,06,26,-1.90
2009,02,18,06,27,-1.90
2009,02,18,06,28,-1.90
2009,02,18,06,29,-1.90
2009,02,18,06,30,-1.80
2009,02,18,06,31,-1.90
2009,02,18,06,32,-1.80
2009,02,18,06,33,-1.80
2009,02,18,06,34,-1.80
2009,02,18,06,35,-1.80
2009,02,18,06,36,-1.90
2009,02,18,06,37,-1.90
2009,02,18,06,38,-1.90
2009,02,18,06,39,-1.90
2009,02,18,06,40,-1.90
2009,02,18,06,41,-1.90
2009,02,18,06,42,-1.90
2009,02,18,06,43,-1.90
2009,02,18,06,44,-1.90
2009,02,18,06,45,-1.90
2009,02,18,06,46,-2.00
2009,02,18,06,47,-1.90
2009,02,18,06,48,-1.90
2009,02,18,06,49,-1.90
2009,02,18,06,50,-2.00
2009,02,18,06,51,-2.00
2009,02,18,06,52,-2.00
2009,02,18,06,53,-2.00
2009,02,18,06,54,-2.00
2009,02,18,06,55,-2.00
2009,02,18,06,56,-2.00
2009,02,18,06,57,-2.00
2009,02,18,06,58,-2.00
2009,02,18,06,59,-2.10
2009,02,18,07,00,-2.10
2009,02,18,07,01,-2.10
2009,02,18,07,02,-2.10
2009,02,18,07,03,-2.10
2009,02,18,07,04,-2.10
2009,02,18,07,05,-2.10
2009,02,18,07,06,-2.10
2009,02,18,07,07,-2.10
2009,02,18,07,08,-2.10
2009,02,18,07,09,-2.10
2009,02,18,07,10,-2.10
2009,02,18,07,11,-2.10
2009,02,18,07,12,-2.10
2009,02,18,07,13,-2.10
2009,02,18,07,14,-2.10
2009,02,18,07,15,-2.10
2009,02,18,07,16,-2.10
2009,02,18,07,17,-2.10
2009,02,18,07,18,-2.10
2009,02,18,07,19,-2.10
2009,02,18,07,20,-2.10
2009,02,18,07,21,-2.10
2009,02,18,07,22,-2.10
2009,02,18,07,23,-2.00
2009,02,18,07,24,-2.00
2009,02,18,07,25,-2.00
2009,02,18,07,26,-2.00
2009,02,18,07,27,-2.00
2009,02,18,07,28,-2.00
2009,02,18,07,29,-2.00
2009,02,18,07,30,-2.00
2009,02,18,07,31,-2.00
2009,02,18,07,32,-2.00
2009,02,18,07,33,-2.00
2009,02,18,07,34,-2.00
2009,02,18,07,35,-2.00
2009,02,18,07,36,-2.00
2009,02,18,07,37,-2.00
2009,02,18,07,38,-2.00
2009,02,18,07,39,-2.00
2009,02,18,09,03,3.60
2009,02,18,09,04,3.70
2009,02,18,09,05,3.70
2009,02,18,09,06,3.80
2009,02,18,09,07,3.80
2009,02,18,09,08,3.90
2009,02,18,09,09,3.90
2009,02,18,09,10,4.00
2009,02,18,09,11,4.10
2009,02,18,09,12,4.10
2009,02,18,09,13,4.20
2009,02,18,09,14,4.30
2009,02,18,09,15,4.40
2009,02,18,09,16,4.40
2009,02,18,09,17,4.50
2009,02,18,09,18,4.70
2009,02,18,09,19,4.80
2009,02,18,09,20,4.90
2009,02,18,09,21,5.10
2009,02,18,09,22,5.20
2009,02,18,09,23,5.30
2009,02,18,09,24,5.40
2009,02,18,09,25,5.40
2009,02,18,09,26,5.50
2009,02,18,09,27,5.60
2009,02,18,09,28,5.60
2009,02,18,09,29,5.70
2009,02,18,09,30,5.70
2009,02,18,09,31,5.70
2009,02,18,09,32,5.80
2009,02,18,09,33,5.80
2009,02,18,09,34,5.80
2009,02,18,09,35,5.80
2009,02,18,09,36,5.90
2009,02,18,09,37,5.90
2009,02,18,09,38,5.90
2009,02,18,09,39,6.00
2009,02,18,09,40,6.00
2009,02,18,09,41,6.10
2009,02,18,09,42,6.20
2009,02,18,09,43,6.20
2009,02,18,09,44,6.20
2009,02,18,09,45,6.30
2009,02,18,09,46,6.30
2009,02,18,09,47,6.40
2009,02,18,09,48,6.40
2009,02,18,09,49,6.40
2009,02,18,09,50,6.50
2009,02,18,09,51,6.50
2009,02,18,09,52,6.50
2009,02,18,09,53,6.50
2009,02,18,09,54,6.50
2009,02,18,09,55,6.50
2009,02,18,09,56,6.50
2009,02,18,09,57,6.50
2009,02,18,09,58,6.50
2009,02,18,09,59,6.60
2009,02,18,10,00,6.60
2009,02,18,10,01,6.70
2009,02,18,10,02,6.70
2009,02,18,10,03,6.70
2009,02,18,10,04,6.80
2009,02,18,10,05,6.90
2009,02,18,10,06,6.90
2009,02,18,10,07,7.00
2009,02,18,10,08,7.00
2009,02,18,10,09,7.00
2009,02,18,10,10,7.00
2009,02,18,10,11,7.00
2009,02,18,10,12,7.00
2009,02,18,10,13,7.00
2009,02,18,10,14,7.10
2009,02,18,10,15,7.10
2009,02,18,10,16,7.20
2009,02,18,10,17,7.20
2009,02,18,10,18,7.20
2009,02,18,10,19,7.20
2009,02,18,10,20,7.20
2009,02,18,10,21,7.20
2009,02,18,10,22,7.20
2009,02,18,10,23,7.20
2009,02,18,10,24,7.30
2009,02,18,10,25,7.30
2009,02,18,10,26,7.30
2009,02,18,10,27,7.30
2009,02,18,10,28,7.30
2009,02,18,10,29,7.30
2009,02,18,10,30,7.30
2009,02,18,10,31,7.30
2009,02,18,10,32,7.30
2009,02,18,10,33,7.30
2009,02,18,10,34,7.30
2009,02,18,10,35,7.30
2009,02,18,10,36,7.30
2009,02,18,10,37,7.30
2009,02,18,10,38,7.30
2009,02,18,10,39,7.30
2009,02,18,10,40,7.40
2009,02,18,10,41,7.40
2009,02,18,10,42,7.40
2009,02,18,10,43,7.40
2009,02,18,10,44,7.40
2009,02,18,10,45,7.50
2009,02,18,10,46,7.50
2009,02,18,10,47,7.60
2009,02,18,10,48,7.60
2009,02,18,10,49,7.60
2009,02,18,10,50,7.60
2009,02,18,10,51,7.60
2009,02,18,10,52,7.60
2009,02,18,10,53,7.70
2009,02,18,10,54,7.70
2009,02,18,10,55,7.80
2009,02,18,10,56,7.80
2009,02,18,10,57,7.80
2009,02,18,10,58,7.80
2009,02,18,10,59,7.70
2009,02,18,11,00,7.70
2009,02,18,11,01,7.70
2009,02,18,11,02,7.70
2009,02,18,11,03,7.70
2009,02,18,11,04,7.70
2009,02,18,11,05,7.70
2009,02,18,11,06,7.70
2009,02,18,11,07,7.70
2009,02,18,11,08,7.70
2009,02,18,11,09,7.70
2009,02,18,11,10,7.70
2009,02,18,11,11,7.70
2009,02,18,11,12,7.70
2009,02,18,11,13,7.70
2009,02,18,11,14,7.70
2009,02,18,11,15,7.80
2009,02,18,11,16,7.80
2009,02,18,11,17,7.80
2009,02,18,11,18,7.80
2009,02,18,11,19,7.90
2009,02,18,11,20,7.90
2009,02,18,11,21,8.00
2009,02,18,11,22,8.00
2009,02,18,11,23,8.00
2009,02,18,11,24,8.00
2009,02,18,11,25,8.00
2009,02,18,11,26,7.90
2009,02,18,11,27,8.00
2009,02,18,11,28,8.00
2009,02,18,11,29,8.00
2009,02,18,11,30,8.10
2009,02,18,11,31,8.10
2009,02,18,11,32,8.10
2009,02,18,11,33,8.10
2009,02,18,11,34,8.10
2009,02,18,11,35,8.10
2009,02,18,11,36,8.00
2009,02,18,11,37,8.00
2009,02,18,11,38,7.90
2009,02,18,11,39,7.90
2009,02,18,11,40,7.90
2009,02,18,11,41,7.90
2009,02,18,11,42,8.00
2009,02,18,11,43,8.00
2009,02,18,11,44,8.10
2009,02,18,11,45,8.10
2009,02,18,11,46,8.10
2009,02,18,11,47,8.10
2009,02,18,11,48,8.10
2009,02,18,11,49,8.10
2009,02,18,11,50,8.10
2009,02,18,11,51,8.10
2009,02,18,11,52,8.10
2009,02,18,11,53,8.20
2009,02,18,11,54,8.20
2009,02,18,11,55,8.20
2009,02,18,11,56,8.30
2009,02,18,11,57,8.40
2009,02,18,11,58,8.40
2009,02,18,11,59,8.40
2009,02,18,12,00,8.40
2009,02,18,12,01,8.50
2009,02,18,12,02,8.50
2009,02,18,12,03,8.60
2009,02,18,12,04,8.50
2009,02,18,12,05,8.50
2009,02,18,12,06,8.60
2009,02,18,12,07,8.60
2009,02,18,12,08,8.60
2009,02,18,12,09,8.60
2009,02,18,12,10,8.60
2009,02,18,12,11,8.60
2009,02,18,12,12,8.50
2009,02,18,12,13,8.40
2009,02,18,12,14,8.40
2009,02,18,12,15,8.40
2009,02,18,12,16,8.40
2009,02,18,12,17,8.40
2009,02,18,12,18,8.50
2009,02,18,12,19,8.50
2009,02,18,12,20,8.60
2009,02,18,12,21,8.60
2009,02,18,12,22,8.70
2009,02,18,12,23,8.70
2009,02,18,12,24,8.70
2009,02,18,12,25,8.70
2009,02,18,12,26,8.80
2009,02,18,12,27,8.80
2009,02,18,12,28,8.80
2009,02,18,12,29,8.80
2009,02,18,12,30,8.80
2009,02,18,12,31,8.80
2009,02,18,12,32,8.80
2009,02,18,12,33,8.80
2009,02,18,12,34,8.80
2009,02,18,12,35,8.80
2009,02,18,12,36,8.70
2009,02,18,12,37,8.70
2009,02,18,12,38,8.80
2009,02,18,12,39,8.80
2009,02,18,12,40,8.80
2009,02,18,12,41,8.80
2009,02,18,12,42,8.90
2009,02,18,12,43,8.90
2009,02,18,12,44,8.90
2009,02,18,12,45,8.90
2009,02,18,12,46,8.80
2009,02,18,12,47,8.80
2009,02,18,12,48,8.80
2009,02,18,12,49,8.80
2009,02,18,12,50,8.80
2009,02,18,12,51,8.80
2009,02,18,12,52,8.80
2009,02,18,12,53,8.70
2009,02,18,12,54,8.70
2009,02,18,12,55,8.60
2009,02,18,12,56,8.60
2009,02,18,12,57,8.60
2009,02,18,12,58,8.60
2009,02,18,12,59,8.70
2009,02,18,13,00,8.80
2009,02,18,13,01,8.80
2009,02,18,13,02,8.80
2009,02,18,13,03,8.70
2009,02,18,13,04,8.70
2009,02,18,13,05,8.70
2009,02,18,13,06,8.70
2009,02,18,13,07,8.70
2009,02,18,13,08,8.70
2009,02,18,13,09,8.70
2009,02,18,13,10,8.80
2009,02,18,13,11,8.80
2009,02,18,13,12,8.80
2009,02,18,13,13,8.80
2009,02,18,13,14,8.80
2009,02,18,13,15,8.80
2009,02,18,13,16,8.80
2009,02,18,13,17,8.80
2009,02,18,13,18,8.80
2009,02,18,13,19,8.70
2009,02,18,13,20,8.70
2009,02,18,13,21,8.80
2009,02,18,13,22,8.80
2009,02,18,13,23,8.80
2009,02,18,13,24,8.80
2009,02,18,13,25,8.80
2009,02,18,13,26,8.80
2009,02,18,13,27,8.80
2009,02,18,13,28,8.80
2009,02,18,13,29,8.80
2009,02,18,13,30,8.80
2009,02,18,13,31,8.90
2009,02,18,13,32,8.90
2009,02,18,13,33,9.00
2009,02,18,13,34,9.00
2009,02,18,13,35,9.10
2009,02,18,13,36,9.10
2009,02,18,13,37,9.20
2009,02,18,13,38,9.20
2009,02,18,13,39,9.20
2009,02,18,13,40,9.20
2009,02,18,13,41,9.20
2009,02,18,13,42,9.20
2009,02,18,13,43,9.10
2009,02,18,13,44,9.10
2009,02,18,13,45,9.10
2009,02,18,13,46,9.00
2009,02,18,13,47,9.00
2009,02,18,13,48,9.00
2009,02,18,13,49,9.10
2009,02,18,13,50,9.10
2009,02,18,13,51,9.10
2009,02,18,13,52,9.00
2009,02,18,13,53,9.00
2009,02,18,13,54,8.90
2009,02,18,13,55,8.90
2009,02,18,13,56,8.90
2009,02,18,13,57,8.90
2009,02,18,13,58,9.00
2009,02,18,13,59,9.00
2009,02,18,14,00,9.00
2009,02,18,14,01,9.00
2009,02,18,14,02,9.10
2009,02,18,14,03,9.10
2009,02,18,14,04,9.10
2009,02,18,14,05,9.00
2009,02,18,14,06,9.00
2009,02,18,14,07,9.00
2009,02,18,14,08,8.90
2009,02,18,14,09,8.90
2009,02,18,14,10,8.90
2009,02,18,14,11,8.90
2009,02,18,14,12,8.90
2009,02,18,14,13,8.90
2009,02,18,14,14,8.90
2009,02,18,14,15,8.90
2009,02,18,14,16,9.00
2009,02,18,14,17,9.00
2009,02,18,14,18,9.10
2009,02,18,14,19,9.10
2009,02,18,14,20,9.20
2009,02,18,14,21,9.30
2009,02,18,14,22,9.40
2009,02,18,14,23,9.50
2009,02,18,14,24,9.50
2009,02,18,14,25,9.60
2009,02,18,14,26,9.60
2009,02,18,14,27,9.50
2009,02,18,14,28,9.50
2009,02,18,14,29,9.50
2009,02,18,14,30,9.50
2009,02,18,14,31,9.50
2009,02,18,14,32,9.50
2009,02,18,14,33,9.40
2009,02,18,14,34,9.40
2009,02,18,14,35,9.40
2009,02,18,14,36,9.40
2009,02,18,14,37,9.40
2009,02,18,14,38,9.30
2009,02,18,14,39,9.30
2009,02,18,14,40,9.20
2009,02,18,14,41,9.30
2009,02,18,14,42,9.20
2009,02,18,14,43,9.20
2009,02,18,14,44,9.20
2009,02,18,14,45,9.20
2009,02,18,14,46,9.10
2009,02,18,14,47,9.10
2009,02,18,14,48,9.00
2009,02,18,14,49,9.00
2009,02,18,14,50,9.00
2009,02,18,14,51,9.00
2009,02,18,14,52,9.10
2009,02,18,14,53,9.10
2009,02,18,14,54,9.10
2009,02,18,14,55,9.10
2009,02,18,14,56,9.10
2009,02,18,14,57,9.10
2009,02,18,14,58,9.10
2009,02,18,14,59,9.10
2009,02,18,15,00,9.10
2009,02,18,15,01,9.10
2009,02,18,15,02,9.10
2009,02,18,15,03,9.10
2009,02,18,15,04,9.10
2009,02,18,15,05,9.10
2009,02,18,15,06,9.00
2009,02,18,15,07,9.00
2009,02,18,15,08,9.00
2009,02,18,15,09,9.10
2009,02,18,15,10,9.10
2009,02,18,15,11,9.00
2009,02,18,15,12,9.00
2009,02,18,15,13,9.00
2009,02,18,15,14,9.00
2009,02,18,15,15,9.00
2009,02,18,15,16,9.00
2009,02,18,15,17,9.00
2009,02,18,15,18,9.00
2009,02,18,15,19,8.90
2009,02,18,15,20,8.80
2009,02,18,15,21,8.80
2009,02,18,15,22,8.80
2009,02,18,15,23,8.80
2009,02,18,15,24,8.70
2009,02,18,15,25,8.70
2009,02,18,15,26,8.60
2009,02,18,15,27,8.60
2009,02,18,15,28,8.60
2009,02,18,15,29,8.70
2009,02,18,15,30,8.70
2009,02,18,15,31,8.70
2009,02,18,15,32,8.70
2009,02,18,15,33,8.70
2009,02,18,15,34,8.70
2009,02,18,15,35,8.70
2009,02,18,15,36,8.70
2009,02,18,15,37,8.70
2009,02,18,15,38,8.60
2009,02,18,15,39,8.60
2009,02,18,15,40,8.60
2009,02,18,15,41,8.60
2009,02,18,15,42,8.50
2009,02,18,15,43,8.50
2009,02,18,15,44,8.50
2009,02,18,15,45,8.40
2009,02,18,15,46,8.40
2009,02,18,15,47,8.40
2009,02,18,15,48,8.40
2009,02,18,15,49,8.40
2009,02,18,15,50,8.40
2009,02,18,15,51,8.40
2009,02,18,15,52,8.40
2009,02,18,15,53,8.40
2009,02,18,15,54,8.40
2009,02,18,15,55,8.40
2009,02,18,15,56,8.40
2009,02,18,15,57,8.40
2009,02,18,15,58,8.40
2009,02,18,15,59,8.40
2009,02,18,16,00,8.40
2009,02,18,16,01,8.40
2009,02,18,16,02,8.40
2009,02,18,16,03,8.40
2009,02,18,16,04,8.30
2009,02,18,16,05,8.30
2009,02,18,16,06,8.30
2009,02,18,16,07,8.30
2009,02,18,16,08,8.30
2009,02,18,16,09,8.30
2009,02,18,16,10,8.20
2009,02,18,16,11,8.20
2009,02,18,16,12,8.20
2009,02,18,16,13,8.20
2009,02,18,16,14,8.20
2009,02,18,16,15,8.20
2009,02,18,16,16,8.20
2009,02,18,16,17,8.20
2009,02,18,16,18,8.20
2009,02,18,16,19,8.20
2009,02,18,16,20,8.20
2009,02,18,16,21,8.20
2009,02,18,16,22,8.20
2009,02,18,16,23,8.20
2009,02,18,16,24,8.20
2009,02,18,16,25,8.20
2009,02,18,16,26,8.20
2009,02,18,16,27,8.20
2009,02,18,16,28,8.20
2009,02,18,16,29,8.20
2009,02,18,16,30,8.20
2009,02,18,16,31,8.20
2009,02,18,16,32,8.20
2009,02,18,16,33,8.20
2009,02,18,16,34,8.20
2009,02,18,16,35,8.20
2009,02,18,16,36,8.20
2009,02,18,16,37,8.20
2009,02,18,16,38,8.20
2009,02,18,16,39,8.20
2009,02,18,16,40,8.20
2009,02,18,16,41,8.20
2009,02,18,16,42,8.20
2009,02,18,16,43,8.20
2009,02,18,16,44,8.20
2009,02,18,16,45,8.20
2009,02,18,16,46,8.20
2009,02,18,16,47,8.20
2009,02,18,16,48,8.20
2009,02,18,16,49,8.10
2009,02,18,16,50,8.10
2009,02,18,16,51,8.10
2009,02,18,16,52,8.10
2009,02,18,16,53,8.10
2009,02,18,16,54,8.10
2009,02,18,16,55,8.10
2009,02,18,16,56,8.00
2009,02,18,16,57,8.00
2009,02,18,16,58,8.00
2009,02,18,16,59,8.00
2009,02,18,17,00,7.90
2009,02,18,17,01,7.90
2009,02,18,17,02,7.90
2009,02,18,17,03,7.90
2009,02,18,17,04,7.90
2009,02,18,17,05,7.90
2009,02,18,17,06,7.90
2009,02,18,17,07,7.90
2009,02,18,17,08,7.90
2009,02,18,17,09,7.90
2009,02,18,17,10,7.90
2009,02,18,17,11,7.80
2009,02,18,17,12,7.80
2009,02,18,17,13,7.80
2009,02,18,17,14,7.80
2009,02,18,17,15,7.80
2009,02,18,17,16,7.80
2009,02,18,17,17,7.80
2009,02,18,17,18,7.70
2009,02,18,17,19,7.70
2009,02,18,17,20,7.70
2009,02,18,17,21,7.70
2009,02,18,17,22,7.70
2009,02,18,17,23,7.70
2009,02,18,17,24,7.70
2009,02,18,17,25,7.70
2009,02,18,17,26,7.70
2009,02,18,17,27,7.60
2009,02,18,17,28,7.60
2009,02,18,17,29,7.60
2009,02,18,17,30,7.60
2009,02,18,17,31,7.60
2009,02,18,17,32,7.60
2009,02,18,17,33,7.50
2009,02,18,17,34,7.50
2009,02,18,17,35,7.50
2009,02,18,17,36,7.50
2009,02,18,17,37,7.50
2009,02,18,17,38,7.40
2009,02,18,17,39,7.40
2009,02,18,17,40,7.40
2009,02,18,17,41,7.40
2009,02,18,17,42,7.40
2009,02,18,17,43,7.40
2009,02,18,17,44,7.30
2009,02,18,17,45,7.30
2009,02,18,17,46,7.30
2009,02,18,17,47,7.30
2009,02,18,17,48,7.20
2009,02,18,17,49,7.20
2009,02,18,17,50,7.20
2009,02,18,17,51,7.10
2009,02,18,17,52,7.10
2009,02,18,17,53,7.00
2009,02,18,17,54,7.00
2009,02,18,17,55,7.00
2009,02,18,17,56,6.90
2009,02,18,17,57,6.90
2009,02,18,17,58,6.90
2009,02,18,17,59,6.80
2009,02,18,18,00,6.80
2009,02,18,18,01,6.80
2009,02,18,18,02,6.70
2009,02,18,18,03,6.70
2009,02,18,18,04,6.70
2009,02,18,18,05,6.70
2009,02,18,18,06,6.60
2009,02,18,18,07,6.60
2009,02,18,18,08,6.60
2009,02,18,18,09,6.50
2009,02,18,18,10,6.50
2009,02,18,18,11,6.50
2009,02,18,18,12,6.40
2009,02,18,18,13,6.40
2009,02,18,18,14,6.40
2009,02,18,18,15,6.30
2009,02,18,18,16,6.30
2009,02,18,18,17,6.30
2009,02,18,18,18,6.30
2009,02,18,18,19,6.20
2009,02,18,18,20,6.20
2009,02,18,18,21,6.20
2009,02,18,18,22,6.10
2009,02,18,18,23,6.10
2009,02,18,18,24,6.10
2009,02,18,18,25,6.10
2009,02,18,18,26,6.00
2009,02,18,18,27,6.00
2009,02,18,18,28,5.90
2009,02,18,18,29,5.90
2009,02,18,18,30,5.80
2009,02,18,18,31,5.80
2009,02,18,18,32,5.70
2009,02,18,18,33,5.70
2009,02,18,18,34,5.70
2009,02,18,18,35,5.60
2009,02,18,18,36,5.60
2009,02,18,18,37,5.60
2009,02,18,18,38,5.60
2009,02,18,18,39,5.60
2009,02,18,18,40,5.60
2009,02,18,18,41,5.60
2009,02,18,18,42,5.60
2009,02,18,18,43,5.60
2009,02,18,18,44,5.50
2009,02,18,18,45,5.50
2009,02,18,18,46,5.50
2009,02,18,18,47,5.40
2009,02,18,18,48,5.40
2009,02,18,18,49,5.40
2009,02,18,18,50,5.30
2009,02,18,18,51,5.30
2009,02,18,18,52,5.30
2009,02,18,18,53,5.30
2009,02,18,18,54,5.30
2009,02,18,18,55,5.20
2009,02,18,18,56,5.20
2009,02,18,18,57,5.20
2009,02,18,18,58,5.20
2009,02,18,18,59,5.20
2009,02,18,19,00,5.10
2009,02,18,19,01,5.10
2009,02,18,19,02,5.10
2009,02,18,19,03,5.10
2009,02,18,19,04,5.10
2009,02,18,19,05,5.10
2009,02,18,19,06,5.00
2009,02,18,19,07,5.00
2009,02,18,19,08,4.90
2009,02,18,19,09,4.90
2009,02,18,19,10,4.90
2009,02,18,19,11,4.80
2009,02,18,19,12,4.80
2009,02,18,19,13,4.80
2009,02,18,19,14,4.70
2009,02,18,19,15,4.70
2009,02,18,19,16,4.70
2009,02,18,19,17,4.70
2009,02,18,19,18,4.60
2009,02,18,19,19,4.60
2009,02,18,19,20,4.60
2009,02,18,19,21,4.60
2009,02,18,19,22,4.60
2009,02,18,19,23,4.60
2009,02,18,19,24,4.60
2009,02,18,19,25,4.50
2009,02,18,19,26,4.50
2009,02,18,19,27,4.50
2009,02,18,19,28,4.50
2009,02,18,19,29,4.50
2009,02,18,19,30,4.40
2009,02,18,19,31,4.40
2009,02,18,19,32,4.40
2009,02,18,19,33,4.30
2009,02,18,19,34,4.30
2009,02,18,19,35,4.20
2009,02,18,19,36,4.20
2009,02,18,19,37,4.20
2009,02,18,19,38,4.10
2009,02,18,19,39,4.10
2009,02,18,19,40,4.10
2009,02,18,19,41,4.10
2009,02,18,19,42,4.10
2009,02,18,19,43,4.00
2009,02,18,19,44,4.00
2009,02,18,19,45,3.90
2009,02,18,19,46,3.90
2009,02,18,19,47,3.90
2009,02,18,19,48,3.80
2009,02,18,19,49,3.80
2009,02,18,19,50,3.80
2009,02,18,19,51,3.80
2009,02,18,19,52,3.70
2009,02,18,19,53,3.70
2009,02,18,19,54,3.70
2009,02,18,19,55,3.60
2009,02,18,19,56,3.60
2009,02,18,19,57,3.60
2009,02,18,19,58,3.50
2009,02,18,19,59,3.50
2009,02,18,20,00,3.40
2009,02,18,20,01,3.40
2009,02,18,20,02,3.40
2009,02,18,20,03,3.40
2009,02,18,20,04,3.30
2009,02,18,20,05,3.30
2009,02,18,20,06,3.30
2009,02,18,20,07,3.30
2009,02,18,20,08,3.30
2009,02,18,20,09,3.30
2009,02,18,20,10,3.20
2009,02,18,20,11,3.20
2009,02,18,20,12,3.20
2009,02,18,20,13,3.20
2009,02,18,20,14,3.20
2009,02,18,20,15,3.10
2009,02,18,20,16,3.10
2009,02,18,20,17,3.10
2009,02,18,20,18,3.00
2009,02,18,20,19,3.00
2009,02,18,20,20,3.00
2009,02,18,20,21,2.90
2009,02,18,20,22,2.90
2009,02,18,20,23,2.90
2009,02,18,20,24,2.90
2009,02,18,20,25,2.80
2009,02,18,20,26,2.80
2009,02,18,20,27,2.80
2009,02,18,20,28,2.80
2009,02,18,20,29,2.80
2009,02,18,20,30,2.80
2009,02,18,20,31,2.80
2009,02,18,20,32,2.80
2009,02,18,20,33,2.70
2009,02,18,20,34,2.70
2009,02,18,20,35,2.70
2009,02,18,20,36,2.70
2009,02,18,20,37,2.60
2009,02,18,20,38,2.60
2009,02,18,20,39,2.60
2009,02,18,20,40,2.60
2009,02,18,20,41,2.50
2009,02,18,20,42,2.50
2009,02,18,20,43,2.50
2009,02,18,20,44,2.50
2009,02,18,20,45,2.40
2009,02,18,20,46,2.40
2009,02,18,20,47,2.40
2009,02,18,20,48,2.40
2009,02,18,20,49,2.40
2009,02,18,20,50,2.40
2009,02,18,20,51,2.40
2009,02,18,20,52,2.40
2009,02,18,20,53,2.40
2009,02,18,20,54,2.30
2009,02,18,20,55,2.30
2009,02,18,20,56,2.30
2009,02,18,20,57,2.30
2009,02,18,20,58,2.20
2009,02,18,20,59,2.20
2009,02,18,21,00,2.20
2009,02,18,21,01,2.20
2009,02,18,21,02,2.20
2009,02,18,21,03,2.20
2009,02,18,21,04,2.20
2009,02,18,21,05,2.20
2009,02,18,21,06,2.20
2009,02,18,21,07,2.20
2009,02,18,21,08,2.20
2009,02,18,21,09,2.10
2009,02,18,21,10,2.10
2009,02,18,21,11,2.10
2009,02,18,21,12,2.10
2009,02,18,21,13,2.10
2009,02,18,21,14,2.00
2009,02,18,21,15,2.00
2009,02,18,21,16,2.00
2009,02,18,21,17,2.00
2009,02,18,21,18,1.90
2009,02,18,21,19,1.90
2009,02,18,21,20,1.90
2009,02,18,21,21,1.90
2009,02,18,21,22,1.90
2009,02,18,21,23,1.90
2009,02,18,21,24,1.90
2009,02,18,21,25,1.90
2009,02,18,21,26,1.80
2009,02,18,21,27,1.80
2009,02,18,21,28,1.80
2009,02,18,21,29,1.80
2009,02,18,21,30,1.80
2009,02,18,21,31,1.80
2009,02,18,21,32,1.80